Location: Colonia Mina de C?rbuni
(46.1667°N, 22.7167°E)
Time: 12:16:14
(UTC+00:00)

ATLAS CENTAUR R/B - Pass Details

Date: 04 February 2023
Orbit: 450 x 653 km, 64.7° (Epoch: 19 March)

Event Time Altitude Azimuth Distance (km) Brightness Sun altitude
Rises 17:15:15 0° 271° (W) 2,965 6.8 -17.1°
Reaches altitude 10° 17:18:34 10° 296° (WNW) 2,030 5.1 -17.7°
Maximum altitude 17:21:09 15° 330° (NNW) 1,714 4.1 -18.1°
Drops below altitude 10° 17:23:42 10° 4° (N) 1,976 4.0 -18.5°
Enters shadow 17:24:49 - 15° (NNE) 2,235 4.2 -18.7°
